User: anonymous
Location: Cluny
(50.9333°N, 112.8167°W)
Time: 11:30:58
(UTC-06:00)
Language:

Cosmos 1743 Rocket - Orbit

View from above orbital plane
View from above orbital plane
View from above satellite
View from above satellite

Ground track
Ground track

The orbit data is extracted from the following two-line orbital elements,

1 16720U 86034B   14244.76358821  .00000235  00000-0  26062-4 0  5358
2 16720 082.5530 111.6776 0019751 219.7343 184.8316 14.82778053528160
Epoch (UTC): 01 September 2014 18:19:34
Eccentricity: 0.0019751
inclination: 82.5530°
perigee height: 607 km
apogee height: 634 km
right ascension of ascending node: 111.6776°
argument of perigee: 219.7343°
revolutions per day: 14.82778053
mean anomaly at epoch: 184.8316°
orbit number at epoch: 52816

The dashed part of the orbit path shows where the satellite is in the earth's shadow,  

DLR